When you browse on this site, cookies collect data to enhance your experience and personalize the content and advertising you see.
Visit our Privacy Policy to learn more. By continuing to use the site, you agree to this use of cookies and data.
  • In Spain
  • List of Countries
  • For 7 days
  • Water Temperature
  • Satellite Maps
  • Weather Map
  • Weather Widgets
  • user-avatar
    Login

    Hourly Weather Karak

    Today, 18 January, Friday

    Time Temperature Precipitation Wind Pressure Humidity
    00:00 +5°C° 0 mm 4 mps 683 mmHg 86%
    01:00 +5°C° 0 mm 4 mps 683 mmHg 86%
    02:00 +5°C° 0 mm 3 mps 683 mmHg 87%
    03:00 +4°C° 0 mm 3 mps 683 mmHg 88%
    04:00 +4°C° 0 mm 3 mps 683 mmHg 88%
    05:00 +5°C° 0 mm 2 mps 683 mmHg 88%
    06:00 +5°C° 0 mm 2 mps 683 mmHg 86%
    07:00 +5°C° 0 mm 2 mps 683 mmHg 84%
    08:00 +6°C° 0 mm 2 mps 684 mmHg 82%
    09:00 +7°C° 0 mm 2 mps 684 mmHg 75%
    10:00 +8°C° 0 mm 2 mps 684 mmHg 68%
    11:00 +9°C° 0 mm 2 mps 684 mmHg 61%
    12:00 +9°C° 0 mm 2 mps 684 mmHg 58%
    13:00 +10°C° 0 mm 2 mps 684 mmHg 54%
    14:00 +10°C° 0 mm 2 mps 684 mmHg 50%
    15:00 +10°C° 0 mm 2 mps 684 mmHg 52%
    16:00 +10°C° 0 mm 2 mps 683 mmHg 53%
    17:00 +10°C° 0 mm 1 mps 683 mmHg 55%
    18:00 +10°C° 0 mm 1 mps 684 mmHg 58%
    19:00 +9°C° 0 mm 1 mps 684 mmHg 61%
    20:00 +9°C° 0 mm 1 mps 684 mmHg 64%
    21:00 +8°C° 0 mm 1 mps 684 mmHg 66%
    22:00 +7°C° 0 mm 0 mps 684 mmHg 68%
    23:00 +6°C° 0 mm 0 mps 684 mmHg 70%

    Tomorrow, 19 January, Saturday

    Time Temperature Precipitation Wind Pressure Humidity
    00:00 +7°C° 0 mm 1 mps 684 mmHg 70%
    01:00 +7°C° 0 mm 1 mps 684 mmHg 70%
    02:00 +7°C° 0 mm 1 mps 684 mmHg 70%
    03:00 +6°C° 0 mm 1 mps 683 mmHg 70%
    04:00 +5°C° 0 mm 2 mps 683 mmHg 71%
    05:00 +5°C° 0 mm 2 mps 683 mmHg 71%
    06:00 +5°C° 0 mm 2 mps 683 mmHg 69%
    07:00 +6°C° 0 mm 2 mps 684 mmHg 66%
    08:00 +6°C° 0 mm 2 mps 684 mmHg 64%
    09:00 +8°C° 0 mm 2 mps 684 mmHg 58%
    10:00 +9°C° 0 mm 2 mps 684 mmHg 51%
    11:00 +12°C° 0 mm 2 mps 685 mmHg 45%
    12:00 +12°C° 0 mm 2 mps 684 mmHg 42%
    13:00 +13°C° 0 mm 2 mps 684 mmHg 39%
    14:00 +13°C° 0 mm 1 mps 683 mmHg 36%
    15:00 +13°C° 0 mm 1 mps 683 mmHg 38%
    16:00 +12°C° 0 mm 1 mps 683 mmHg 41%
    17:00 +12°C° 0 mm 1 mps 683 mmHg 43%
    18:00 +11°C° 0 mm 1 mps 683 mmHg 46%
    19:00 +10°C° 0 mm 1 mps 683 mmHg 48%
    20:00 +10°C° 0 mm 1 mps 683 mmHg 51%
    21:00 +9°C° 0 mm 1 mps 683 mmHg 50%
    22:00 +9°C° 0 mm 1 mps 683 mmHg 49%
    23:00 +8°C° 0 mm 1 mps 683 mmHg 48%

    Day after tomorrow, 20 January, Sunday

    Time Temperature Precipitation Wind Pressure Humidity
    00:00 +8°C° 0 mm 1 mps 683 mmHg 46%
    01:00 +8°C° 0 mm 1 mps 683 mmHg 45%
    02:00 +8°C° 0 mm 1 mps 683 mmHg 43%
    03:00 +6°C° 0 mm 2 mps 682 mmHg 42%
    04:00 +6°C° 0 mm 2 mps 682 mmHg 41%
    05:00 +6°C° 0 mm 2 mps 682 mmHg 40%
    06:00 +6°C° 0 mm 2 mps 682 mmHg 38%
    07:00 +7°C° 0 mm 2 mps 683 mmHg 37%
    08:00 +8°C° 0 mm 2 mps 684 mmHg 35%
    09:00 +9°C° 0 mm 2 mps 684 mmHg 33%
    10:00 +11°C° 0 mm 1 mps 684 mmHg 31%
    11:00 +13°C° 0 mm 1 mps 684 mmHg 29%
    12:00 +13°C° 0 mm 1 mps 683 mmHg 28%
    13:00 +14°C° 0 mm 1 mps 683 mmHg 26%
    14:00 +14°C° 0 mm 1 mps 682 mmHg 24%
    15:00 +14°C° 0 mm 1 mps 682 mmHg 27%
    16:00 +13°C° 0 mm 1 mps 682 mmHg 30%
    17:00 +12°C° 0 mm 1 mps 682 mmHg 33%
    18:00 +12°C° 0 mm 1 mps 682 mmHg 33%
    19:00 +11°C° 0 mm 1 mps 682 mmHg 34%
    20:00 +10°C° 0 mm 1 mps 682 mmHg 35%
    21:00 +11°C° 0 mm 1 mps 682 mmHg 35%
    22:00 +11°C° 0 mm 1 mps 682 mmHg 36%
    23:00 +11°C° 0 mm 1 mps 682 mmHg 36%

    21 January, Monday

    Time Temperature Precipitation Wind Pressure Humidity
    00:00 +11°C° 0 mm 1 mps 682 mmHg 39%
    01:00 +10°C° 0 mm 1 mps 682 mmHg 42%
    02:00 +10°C° 0 mm 1 mps 682 mmHg 45%
    03:00 +10°C° 0 mm 1 mps 681 mmHg 47%
    04:00 +9°C° 0 mm 1 mps 681 mmHg 50%
    05:00 +8°C° 0 mm 1 mps 681 mmHg 52%
    06:00 +9°C° 0 mm 1 mps 681 mmHg 51%
    07:00 +10°C° 0 mm 1 mps 682 mmHg 50%
    08:00 +9°C° 0 mm 2 mps 682 mmHg 50%
    09:00 +10°C° 0 mm 2 mps 683 mmHg 46%
    10:00 +12°C° 0 mm 3 mps 683 mmHg 43%
    11:00 +13°C° 0 mm 4 mps 683 mmHg 40%
    12:00 +13°C° 0 mm 5 mps 683 mmHg 39%
    13:00 +14°C° 0 mm 5 mps 682 mmHg 38%
    14:00 +14°C° 0 mm 6 mps 682 mmHg 37%
    15:00 +13°C° 0 mm 5 mps 682 mmHg 41%
    16:00 +13°C° 0 mm 5 mps 682 mmHg 45%
    17:00 +12°C° 0 mm 4 mps 682 mmHg 49%
    18:00 +11°C° 0 mm 3 mps 683 mmHg 54%
    19:00 +10°C° 0 mm 2 mps 683 mmHg 59%
    20:00 +10°C° 0 mm 1 mps 683 mmHg 64%
    21:00 +10°C° 0 mm 1 mps 683 mmHg 66%
    22:00 +9°C° 0 mm 1 mps 683 mmHg 67%
    23:00 +9°C° 0 mm 1 mps 683 mmHg 69%

    22 January, Tuesday

    Time Temperature Precipitation Wind Pressure Humidity
    00:00 +8°C° 0 mm 1 mps 683 mmHg 69%
    01:00 +8°C° 0 mm 1 mps 682 mmHg 69%
    02:00 +8°C° 0 mm 1 mps 682 mmHg 69%
    03:00 +7°C° 0 mm 1 mps 682 mmHg 69%
    04:00 +7°C° 0 mm 1 mps 682 mmHg 69%
    05:00 +7°C° 0 mm 1 mps 682 mmHg 69%
    06:00 +7°C° 0 mm 1 mps 682 mmHg 65%
    07:00 +8°C° 0 mm 1 mps 683 mmHg 60%
    08:00 +9°C° 0 mm 1 mps 683 mmHg 56%
    09:00 +10°C° 0 mm 1 mps 683 mmHg 50%
    10:00 +12°C° 0 mm 1 mps 683 mmHg 44%
    11:00 +13°C° 0 mm 1 mps 683 mmHg 38%
    12:00 +13°C° 0 mm 1 mps 683 mmHg 36%
    13:00 +14°C° 0 mm 2 mps 683 mmHg 33%
    14:00 +15°C° 0 mm 2 mps 682 mmHg 31%
    15:00 +14°C° 0 mm 2 mps 682 mmHg 34%
    16:00 +13°C° 0 mm 2 mps 682 mmHg 36%
    17:00 +13°C° 0 mm 2 mps 682 mmHg 39%
    18:00 +12°C° 0 mm 1 mps 682 mmHg 42%
    19:00 +11°C° 0 mm 1 mps 682 mmHg 44%
    20:00 +9°C° 0 mm 0 mps 682 mmHg 47%
    21:00 +9°C° 0 mm 0 mps 681 mmHg 47%
    22:00 +9°C° 0 mm 0 mps 681 mmHg 47%
    23:00 +8°C° 0 mm 0 mps 681 mmHg 47%

    23 January, Wednesday

    Time Temperature Precipitation Wind Pressure Humidity
    00:00 +8°C° 0 mm 0 mps 681 mmHg 47%
    01:00 +8°C° 0 mm 1 mps 680 mmHg 46%
    02:00 +8°C° 0 mm 1 mps 680 mmHg 46%
    03:00 +8°C° 0 mm 1 mps 680 mmHg 45%
    04:00 +8°C° 0 mm 1 mps 680 mmHg 44%
    05:00 +7°C° 0 mm 1 mps 679 mmHg 43%
    06:00 +8°C° 0 mm 1 mps 680 mmHg 39%
    07:00 +9°C° 0 mm 1 mps 680 mmHg 36%
    08:00 +9°C° 0 mm 2 mps 681 mmHg 32%
    09:00 +12°C° 0 mm 1 mps 681 mmHg 28%
    10:00 +13°C° 0 mm 1 mps 681 mmHg 24%
    11:00 +15°C° 0 mm 1 mps 681 mmHg 20%
    12:00 +16°C° 0 mm 1 mps 681 mmHg 19%
    13:00 +18°C° 0 mm 1 mps 680 mmHg 17%
    14:00 +18°C° 0 mm 1 mps 680 mmHg 16%
    15:00 +16°C° 0 mm 1 mps 680 mmHg 19%
    16:00 +15°C° 0 mm 1 mps 679 mmHg 22%
    17:00 +14°C° 0 mm 1 mps 679 mmHg 25%
    18:00 +14°C° 0 mm 1 mps 679 mmHg 24%
    19:00 +14°C° 0 mm 1 mps 679 mmHg 23%
    20:00 +14°C° 0 mm 2 mps 679 mmHg 22%
    21:00 +13°C° 0 mm 2 mps 679 mmHg 23%
    22:00 +13°C° 0 mm 2 mps 679 mmHg 23%
    23:00 +12°C° 0 mm 3 mps 678 mmHg 23%
    Show more